Location: ????????
(38.4362°N, 22.8767°E)
Time: 09:05:26
(UTC+00:00)

AQUA - Visible Passes

Search period start: 24 July 2024 00:00
Search period end: 03 August 2024 00:00
Orbit: 693 x 696 km, 98.3° (Epoch: 24 July)

Date Brightness Start Highest point End Pass type
(mag) Time Alt. Az. Time Alt. Az. Time Alt. Az.
24 Jul 4.3 01:33:10 10° N 01:37:39 44° WNW 01:39:17 32° WSW visible
25 Jul 4.5 00:35:56 10° NNE 00:40:28 45° E 00:41:20 40° SE visible
25 Jul 5.5 02:14:31 10° NNW 02:17:40 18° WNW 02:20:03 13° W visible
25 Jul 6.3 23:41:26 10° ENE 23:42:50 11° E 23:43:22 11° E visible
26 Jul 3.8 01:16:07 10° N 01:20:49 67° WNW 01:22:05 46° SW visible
27 Jul 5.1 00:19:21 10° NE 00:23:30 30° E 00:24:07 29° ESE visible
27 Jul 5.0 01:57:03 10° NNW 02:00:55 26° WNW 02:02:49 20° WSW visible
28 Jul 3.7 00:59:11 10° NNE 01:03:56 81° ESE 01:04:51 58° S visible
28 Jul 6.0 02:39:53 10° NW 02:40:48 10° WNW 02:41:41 10° WNW visible
29 Jul 5.7 00:03:00 10° NE 00:06:28 20° E 00:06:52 20° ESE visible
29 Jul 4.5 01:39:46 10° N 01:44:07 38° WNW 01:45:35 30° WSW visible
30 Jul 4.2 00:42:21 10° NNE 00:46:58 53° E 00:47:36 49° SE visible
30 Jul 5.7 02:21:18 10° NNW 02:24:05 16° WNW 02:26:19 12° W visible
30 Jul 6.2 23:47:08 10° ENE 23:49:21 13° E 23:49:37 13° E visible
31 Jul 3.9 01:22:37 10° N 01:27:16 57° WNW 01:28:20 46° WSW visible
01 Aug 4.9 00:25:39 10° NNE 00:29:58 34° E 00:30:20 34° ESE visible
01 Aug 5.2 02:03:39 10° NNW 02:07:18 23° WNW 02:09:03 19° W visible
02 Aug 3.7 01:05:36 10° NNE 01:10:21 87° W 01:11:03 65° SSW visible
